This is the latest recevied weather packets stored in our database for station/object KE4EST. If no packets are shown the sender has not sent any weather packets the latest 10 day(s).
| Time | Temp. | Humidity | Pressure | Rain* | Wind** | Luminosity | Snow |
|---|---|---|---|---|---|---|---|
| 1777479348 | 16.11° C | 99% | 1014.7 hPa | 0 mm | - | 38 W/m² | - |
| 1777479044 | 16.11° C | 99% | 1014.7 hPa | 0 mm | - | 22 W/m² | - |
| 1777478741 | 16.11° C | 99% | 1014.6 hPa | 0 mm | - | 19 W/m² | - |
| 1777478437 | 16.11° C | 99% | 1014.9 hPa | 0 mm | - | 12 W/m² | - |
| 1777478134 | 16.67° C | 99% | 1014.6 hPa | 0 mm | - | 29 W/m² | - |
| 1777477831 | 16.67° C | 99% | 1014.7 hPa | 1.78 mm | - | 33 W/m² | - |
| 1777477526 | 16.67° C | 99% | 1014.8 hPa | 4.83 mm | - | 34 W/m² | - |
| 1777477223 | 16.67° C | 99% | 1014.7 hPa | 4.83 mm | - | 43 W/m² | - |
| 1777476919 | 16.67° C | 99% | 1015 hPa | 0 mm | - | 55 W/m² | - |
| 1777476617 | 16.67° C | 99% | 1014.9 hPa | 0 mm | - | 33 W/m² | - |
| 1777476314 | 16.67° C | 98% | 1014.9 hPa | 1.27 mm | - | 33 W/m² | - |
| 1777476009 | 16.67° C | 98% | 1015 hPa | 1.27 mm | - | 42 W/m² | - |
| 1777475705 | 16.67° C | 97% | 1014.9 hPa | 0 mm | - | 32 W/m² | - |
| 1777475402 | 16.67° C | 97% | 1015 hPa | 0 mm | - | 41 W/m² | - |
| 1777475096 | 17.22° C | 97% | 1014.9 hPa | 0 mm | - | 37 W/m² | - |
| 1777474793 | 17.22° C | 96% | 1014.8 hPa | 0 mm | - | 34 W/m² | - |
| 1777474489 | 17.22° C | 96% | 1015 hPa | 0 mm | - | 46 W/m² | - |
| 1777474186 | 17.22° C | 95% | 1015 hPa | 0 mm | - | 62 W/m² | - |
| 1777473884 | 17.22° C | 94% | 1015.2 hPa | 0 mm | - | 58 W/m² | - |
| 1777473582 | 17.22° C | 96% | 1015.1 hPa | 0 mm | - | 114 W/m² | - |
| 1777473277 | 16.67° C | 96% | 1015 hPa | 0 mm | - | 150 W/m² | - |
| 1777472973 | 17.22° C | 98% | 1014.9 hPa | 0 mm | - | 138 W/m² | - |
| 1777472670 | 16.67° C | 99% | 1015.1 hPa | 0 mm | - | 148 W/m² | - |
| 1777472366 | 16.11° C | 99% | 1015 hPa | 0 mm | - | 116 W/m² | - |
| 1777472065 | 16.11° C | 99% | 1015 hPa | 0 mm | - | 53 W/m² | - |
* Rain latest hour (hover to see other rain measurements)
** Current wind speed in m/s (hover to see current wind gust speed)